Terminal Aerodrome Forecast
Issued by NWS Wilmington, NC

Home | Current Version | Previous Version | Text Only | Print | Product List | Glossary On
Versions: 1 2 3 4 5 6 7 8 9 10 11 12 13 14 15 16 17 18 19 20
000
FTUS42 KILM 011241 AAA
TAFLBT
TAF AMD
KLBT 011241Z 0113/0212 00000KT 6SM BR SCT002
     FM011330 02004KT P6SM SCT060
     FM011900 25004KT P6SM SCT100 SCT250
     FM020000 VRB03KT P6SM FEW250=

USA.gov is the U.S. government's official web portal to all federal, state and local government web resources and services.